Flag for Norway Weather past 2 weeks in Finse, Norway

Now
29 °F

Chilly.


Feels Like: 23 °F
Forecast: 19 / 36 °F
Wind: 6 mph from Northwest

Location: Finsevatn

Current Time: Apr 21, 2015 at 7:34:48 AM

Latest Report: Apr 21, 2015 at 6:00 AM


Visibility: N/A

Pressure: 30.40 "Hg

Humidity: 72%

Dew point: 22 °F

Location of FinseLocation

Historic Weather in Finse — Graph

°F

Finse temperature yesterday

Maximum temperature yesterday: 44 °F (at 2:00 PM)
Minimum temperature yesterday: 16 °F (at 4:00 AM)
Average temperature yesterday: 31 °F

Past Weeks' High & Low Weather Summary

 TemperatureHumidityPressure
High45 °F (Apr 19, 2:00 PM)97% (Apr 9, 6:00 PM)30.67 "Hg (Apr 9, 6:00 PM)
Low3 °F (Apr 18, 1:00 AM)40% (Apr 20, 2:00 PM)29.50 "Hg (Apr 15, 1:00 PM)
Average28 °F82%30.10 "Hg
* Reported Apr 6 6:00 AM — Apr 21 6:00 AM, Finse, Weather by CustomWeather, © 2015

Note: Actual official high and low records may vary slightly from our data, if they occured in-between our weather recording intervals... More about our weather records

Advertising

Finse weather history for previous 24 hours

 ConditionsComfort  
Time TempWeatherWind HumidityBarometerVisibility
6:00 AM
Tue, Apr 21
29 °FChilly.6 mph72%30.40 "HgN/A
5:00 AM31 °FChilly.6 mph73%30.40 "HgN/A
4:00 AM31 °FChilly.1 mph66%30.41 "HgN/A
3:00 AM36 °FChilly.3 mph56%30.38 "HgN/A
2:00 AM34 °FChilly.3 mph62%30.40 "HgN/A
1:00 AM34 °FChilly.5 mph65%30.42 "HgN/A
12:00 AM33 °FChilly.6 mph70%30.43 "HgN/A
11:00 PM
Mon, Apr 20
36 °FChilly.6 mph64%30.41 "HgN/A
10:00 PM38 °FChilly.10 mph63%30.40 "HgN/A
9:00 PM39 °FChilly.6 mph60%30.40 "HgN/A
8:00 PM40 °FChilly.5 mph59%30.40 "HgN/A
7:00 PM40 °FChilly.5 mph59%30.40 "HgN/A
6:00 PM40 °FChilly.8 mph61%30.39 "HgN/A
5:00 PM41 °FQuite cool.8 mph54%30.40 "HgN/A
4:00 PM41 °FQuite cool.8 mph50%30.41 "HgN/A
3:00 PM42 °FQuite cool.8 mph46%30.40 "HgN/A
2:00 PM44 °FQuite cool.7 mph40%30.40 "HgN/A
1:00 PM43 °FQuite cool.6 mph42%30.40 "HgN/A
12:00 PM42 °FQuite cool.6 mph45%30.43 "HgN/A
11:00 AM41 °FQuite cool.1 mph41%30.43 "HgN/A
10:00 AM30 °FChilly.1 mph61%30.54 "HgN/A
9:00 AM26 °FChilly.No wind60%30.57 "HgN/A
8:00 AM20 °FCold.No wind67%30.62 "HgN/A
7:00 AM17 °FCold.No wind74%30.66 "HgN/A
Weather by CustomWeather, © 2015

See weather overviewHow to use our weather pages